Satellite: NOAA-11 Catalog number: 19531 Epoch time: 11034.26538451 Element set: 388 Inclination: 098.7573 deg RA of node: 124.2514 deg Eccentricity: 0.0010789 Arg of perigee: 206.8412 deg Mean anomaly: 153.2197 deg Mean motion: 14.14902258 rev/day Decay rate: -1.10e-06 rev/day^2 Epoch rev: 15381 Checksum: 284
Satellite: NOAA-12 Catalog number: 21263 Epoch time: 11034.46252325 Element set: 881 Inclination: 098.7576 deg RA of node: 052.4989 deg Eccentricity: 0.0011842 Arg of perigee: 212.4418 deg Mean anomaly: 147.6041 deg Mean motion: 14.25681247 rev/day Decay rate: 2.9e-07 rev/day^2 Epoch rev: 2535 Checksum: 289
Satellite: MET-3/5 Catalog number: 21655 Epoch time: 11034.65708551 Element set: 28 Inclination: 082.5597 deg RA of node: 145.1157 deg Eccentricity: 0.0014496 Arg of perigee: 127.9088 deg Mean anomaly: 232.3389 deg Mean motion: 13.17026299 rev/day Decay rate: 5.1e-07 rev/day^2 Epoch rev: 93614 Checksum: 312
Satellite: MET-2/21 Catalog number: 22782 Epoch time: 11034.62204222 Element set: 8 Inclination: 082.5449 deg RA of node: 068.8528 deg Eccentricity: 0.0023894 Arg of perigee: 111.9511 deg Mean anomaly: 248.4201 deg Mean motion: 13.83652153 rev/day Decay rate: 6.0e-07 rev/day^2 Epoch rev: 88008 Checksum: 276
Satellite: OKEAN-4 Catalog number: 23317 Epoch time: 11034.77181538 Element set: 464 Inclination: 082.5424 deg RA of node: 137.7032 deg Eccentricity: 0.0021625 Arg of perigee: 194.6972 deg Mean anomaly: 165.3642 deg Mean motion: 14.82931946 rev/day Decay rate: 1.42e-06 rev/day^2 Epoch rev: 88077 Checksum: 306
Satellite: NOAA-14 Catalog number: 23455 Epoch time: 11034.42158173 Element set: 368 Inclination: 098.8595 deg RA of node: 118.3552 deg Eccentricity: 0.0008802 Arg of perigee: 303.2912 deg Mean anomaly: 056.7440 deg Mean motion: 14.13804111 rev/day Decay rate: -1.20e-06 rev/day^2 Epoch rev: 83017 Checksum: 271
Satellite: NOAA-15 Catalog number: 25338 Epoch time: 11034.46596466 Element set: 695 Inclination: 098.6428 deg RA of node: 022.5270 deg Eccentricity: 0.0011398 Arg of perigee: 118.8681 deg Mean anomaly: 241.3631 deg Mean motion: 14.24881227 rev/day Decay rate: -.00000000 rev/day^2 Epoch rev: 66168 Checksum: 302
Satellite: RESURS Catalog number: 25394 Epoch time: 11033.64191603 Element set: 0715 Inclination: 098.2994 deg RA of node: 044.0792 deg Eccentricity: 0.0000602 Arg of perigee: 296.4471 deg Mean anomaly: 063.6653 deg Mean motion: 14.24222324 rev/day Decay rate: -1.4e-07 rev/day^2 Epoch rev: 65315 Checksum: 273
Satellite: FENGYUN1 Catalog number: 25730 Epoch time: 11034.48599557 Element set: 249 Inclination: 098.8042 deg RA of node: 358.6968 deg Eccentricity: 0.0022500 Arg of perigee: 329.5195 deg Mean anomaly: 030.5136 deg Mean motion: 14.08487554 rev/day Decay rate: -2.59e-06 rev/day^2 Epoch rev: 60424 Checksum: 319
Satellite: OKEAN-0 Catalog number: 25860 Epoch time: 11033.93277765 Element set: 0221 Inclination: 097.8649 deg RA of node: 004.2162 deg Eccentricity: 0.0001893 Arg of perigee: 068.5598 deg Mean anomaly: 291.5806 deg Mean motion: 14.73705861 rev/day Decay rate: 7.0e-07 rev/day^2 Epoch rev: 62088 Checksum: 315
Satellite: NOAA-16 Catalog number: 26536 Epoch time: 11034.49135756 Element set: 175 Inclination: 099.1551 deg RA of node: 062.2313 deg Eccentricity: 0.0011037 Arg of perigee: 051.4180 deg Mean anomaly: 308.8022 deg Mean motion: 14.12595929 rev/day Decay rate: 1.81e-06 rev/day^2 Epoch rev: 53448 Checksum: 283
Satellite: NOAA-17 Catalog number: 27453 Epoch time: 11034.48639673 Element set: 172 Inclination: 098.3999 deg RA of node: 080.2222 deg Eccentricity: 0.0011843 Arg of perigee: 176.2599 deg Mean anomaly: 183.8671 deg Mean motion: 14.24233316 rev/day Decay rate: 1.63e-06 rev/day^2 Epoch rev: 44762 Checksum: 319
Satellite: NOAA-18 Catalog number: 28654 Epoch time: 11034.33438001 Element set: 657 Inclination: 098.9799 deg RA of node: 345.2687 deg Eccentricity: 0.0014973 Arg of perigee: 120.0957 deg Mean anomaly: 240.1698 deg Mean motion: 14.11434211 rev/day Decay rate: 3.34e-06 rev/day^2 Epoch rev: 29404 Checksum: 308
Satellite: NOAA-19 Catalog number: 33591 Epoch time: 11034.30204003 Element set: 850 Inclination: 098.8145 deg RA of node: 336.7972 deg Eccentricity: 0.0014327 Arg of perigee: 358.7705 deg Mean anomaly: 001.3431 deg Mean motion: 14.11127267 rev/day Decay rate: 1.38e-06 rev/day^2 Epoch rev: 10250 Checksum: 263
/EX SB KEPS @ AMSAT $ORB11034.M Orbital Elements 11034.MISC
HR AMSAT ORBITAL ELEMENTS FOR MANNED AND MISCELLANEOUS SATELLITES FROM WA5QGD FORT WORTH,TX February 3, 2011 Send Subscribe/unsubscribe to KEPS at http://www.amsat.org/mailman/listinfo/keps BID: ORB11034.M TO ALL RADIO AMATEURS BT
Satellite: HUBBLE Catalog number: 20580 Epoch time: 11032.56653249 Element set: 708 Inclination: 028.4690 deg RA of node: 182.2247 deg Eccentricity: 0.0003378 Arg of perigee: 123.6925 deg Mean anomaly: 236.4065 deg Mean motion: 15.01149434 rev/day Decay rate: 4.23e-06 rev/day^2 Epoch rev: 93925 Checksum: 285
Satellite: ISS Catalog number: 25544 Epoch time: 11034.83945877 Element set: 764 Inclination: 051.6455 deg RA of node: 124.6609 deg Eccentricity: 0.0003537 Arg of perigee: 271.6432 deg Mean anomaly: 188.8970 deg Mean motion: 15.72349970 rev/day Decay rate: 1.8784e-04 rev/day^2 Epoch rev: 69991 Checksum: 351
Satellite: CO-58 Catalog number: 28895 Epoch time: 11033.60671841 Element set: 0791 Inclination: 097.9876 deg RA of node: 275.0470 deg Eccentricity: 0.0016914 Arg of perigee: 285.4289 deg Mean anomaly: 074.5040 deg Mean motion: 14.60001761 rev/day Decay rate: 2.32e-06 rev/day^2 Epoch rev: 28060 Checksum: 312
Satellite: FALCON Catalog number: 30776 Epoch time: 11034.51352051 Element set: 14 Inclination: 035.4326 deg RA of node: 079.4249 deg Eccentricity: 0.0001322 Arg of perigee: 359.0701 deg Mean anomaly: 001.0013 deg Mean motion: 15.04089396 rev/day Decay rate: 5.73e-06 rev/day^2 Epoch rev: 21490 Checksum: 240
Satellite: MAST Catalog number: 31126 Epoch time: 11033.74753255 Element set: 0076 Inclination: 097.9112 deg RA of node: 068.4811 deg Eccentricity: 0.0093740 Arg of perigee: 228.6628 deg Mean anomaly: 130.6475 deg Mean motion: 14.53668296 rev/day Decay rate: -4.0e-08 rev/day^2 Epoch rev: 20155 Checksum: 291
Satellite: CAPE1 Catalog number: 31130 Epoch time: 11034.64054047 Element set: 95 Inclination: 097.9122 deg RA of node: 066.3002 deg Eccentricity: 0.0101819 Arg of perigee: 235.6055 deg Mean anomaly: 123.5479 deg Mean motion: 14.52285571 rev/day Decay rate: 8.0e-07 rev/day^2 Epoch rev: 20125 Checksum: 254
Satellite: COMPASS Catalog number: 32787 Epoch time: 11034.75379499 Element set: 900 Inclination: 097.8650 deg RA of node: 100.9817 deg Eccentricity: 0.0014682 Arg of perigee: 249.7179 deg Mean anomaly: 110.2448 deg Mean motion: 14.82128135 rev/day Decay rate: 7.77e-06 rev/day^2 Epoch rev: 14979 Checksum: 334
Satellite: AAUSAT2 Catalog number: 32788 Epoch time: 11034.66570646 Element set: 888 Inclination: 097.8659 deg RA of node: 101.0795 deg Eccentricity: 0.0014603 Arg of perigee: 252.1817 deg Mean anomaly: 107.7811 deg Mean motion: 14.82287508 rev/day Decay rate: 3.58e-06 rev/day^2 Epoch rev: 14979 Checksum: 335
Satellite: DO-64 Catalog number: 32789 Epoch time: 11033.76429568 Element set: 0906 Inclination: 097.8747 deg RA of node: 100.9673 deg Eccentricity: 0.0014544 Arg of perigee: 252.0872 deg Mean anomaly: 107.8750 deg Mean motion: 14.82571621 rev/day Decay rate: 9.23e-06 rev/day^2 Epoch rev: 14966 Checksum: 336
Satellite: CO-66 Catalog number: 32791 Epoch time: 11034.74497573 Element set: 890 Inclination: 097.8657 deg RA of node: 100.9497 deg Eccentricity: 0.0015020 Arg of perigee: 248.8748 deg Mean anomaly: 111.0854 deg Mean motion: 14.81870645 rev/day Decay rate: 5.92e-06 rev/day^2 Epoch rev: 14974 Checksum: 342
Satellite: RS-30 Catalog number: 32953 Epoch time: 11034.69672127 Element set: 438 Inclination: 082.4978 deg RA of node: 245.7142 deg Eccentricity: 0.0018633 Arg of perigee: 320.1622 deg Mean anomaly: 039.8091 deg Mean motion: 12.43010473 rev/day Decay rate: 1.0e-07 rev/day^2 Epoch rev: 12250 Checksum: 266
Satellite: TACSAT-3 Catalog number: 35001 Epoch time: 11034.86128549 Element set: 495 Inclination: 040.4551 deg RA of node: 259.6741 deg Eccentricity: 0.0024299 Arg of perigee: 298.2766 deg Mean anomaly: 061.5606 deg Mean motion: 15.44638965 rev/day Decay rate: 4.961e-05 rev/day^2 Epoch rev: 9643 Checksum: 327
Satellite: PHARMSAT Catalog number: 35002 Epoch time: 11033.85276349 Element set: 461 Inclination: 040.4692 deg RA of node: 263.2408 deg Eccentricity: 0.0026336 Arg of perigee: 295.1619 deg Mean anomaly: 064.6475 deg Mean motion: 15.44848942 rev/day Decay rate: 4.337e-05 rev/day^2 Epoch rev: 9630 Checksum: 300
Satellite: HAWKSAT1 Catalog number: 35003 Epoch time: 11034.81370514 Element set: 502 Inclination: 040.4591 deg RA of node: 242.2735 deg Eccentricity: 0.0025262 Arg of perigee: 326.0749 deg Mean anomaly: 033.8506 deg Mean motion: 15.51565422 rev/day Decay rate: 1.3391e-04 rev/day^2 Epoch rev: 9662 Checksum: 261
Satellite: CP6 Catalog number: 35004 Epoch time: 11033.95327067 Element set: 0505 Inclination: 040.4596 deg RA of node: 243.5751 deg Eccentricity: 0.0024663 Arg of perigee: 326.0330 deg Mean anomaly: 033.8908 deg Mean motion: 15.53771340 rev/day Decay rate: 1.5451e-04 rev/day^2 Epoch rev: 09652 Checksum: 280
Satellite: AEROCUB3 Catalog number: 35005 Epoch time: 11006.09222617 Element set: 610 Inclination: 040.4461 deg RA of node: 021.7975 deg Eccentricity: 0.0025578 Arg of perigee: 084.1677 deg Mean anomaly: 280.7191 deg Mean motion: 16.39196088 rev/day Decay rate: 1.4049365e-01 rev/day^2 Epoch rev: 9254 Checksum: 305
